Fitchburg, MA

9:30 AM EDT on October 22, 2019 (GMT -0400)
Fitchburg Municipal

Weather History for KFIT - May, 2019

Change the Weather History Date:

Saturday, May 4, 2019

  Actual Average (KORH) Record (KORH)
Temperature  
Mean Temperature 56 °F -  
Max Temperature 62 °F 59 °F 89 °F (1944)
Min Temperature 50 °F 41 °F 29 °F (1986)
Degree Days  
Heating Degree Days 9    
Growing Degree Days 6 (Base 50)    
Moisture  
Dew Point 50 °F    
Average Humidity 88    
Maximum Humidity 96    
Minimum Humidity 72    
Precipitation  
Precipitation 0.08 in - - ()
Sea Level Pressure  
Sea Level Pressure 29.91 in    
Wind  
Wind Speed 2 mph (ESE)    
Max Wind Speed 6 mph    
Max Gust Speed -    
Visibility 7 miles    
Events Rain    
Averages and records for this station are not official NWS values.
T = Trace of Precipitation, MM = Missing Value Source: NWS Daily Summary

Daily Weather History Graph

Daily Weather History Graph

Search for Another Location

Airport or City:

Astronomy

May. 04, 2019 Rise Set
Actual Time 5:38 AM EDT 7:50 PM EDT
Civil Twilight 5:07 AM EDT 8:21 PM EDT
Nautical Twilight 4:28 AM EDT 8:59 PM EDT
Astronomical Twilight 3:46 AM EDT 9:42 PM EDT
Moon 5:50 AM EDT (5/4) 7:35 PM EDT (5/4)
Length of Visible Light 15h 14m
Length of Day
14h 11m
Waning Crescent, 0% of the Moon is Illuminated
May 4
Waning Crescent
May 4
New
May 11
First Quarter
May 18
Full
May 26
Last Quarter

Hourly Weather History & Observations

Time (EDT) Temp. Dew Point Humidity Pressure Visibility Wind Dir Wind Speed Gust Speed Precip Events Conditions
12:52 AM 51.1 °F 48.9 °F 92% 29.96 in 3.0 mi Calm Calm - 0.00 in   Overcast
1:17 AM 51.1 °F 50.0 °F 96% 29.95 in 2.5 mi Calm Calm - N/A   Overcast
1:35 AM 51.1 °F 48.9 °F 92% 29.94 in 1.8 mi ESE 3.5 mph - N/A   Overcast
1:52 AM 51.1 °F 48.9 °F 92% 29.94 in 1.8 mi SSE 3.5 mph - N/A   Overcast
2:05 AM 51.1 °F 48.9 °F 92% 29.93 in 0.8 mi Calm Calm - N/A   Mist
2:48 AM 50.0 °F 48.2 °F 94% 29.92 in 1.2 mi East 3.5 mph - N/A   Overcast
2:52 AM 50.0 °F 48.9 °F 96% 29.92 in 1.2 mi SE 3.5 mph - N/A   Overcast
2:57 AM 50.0 °F 48.9 °F 96% 29.92 in 0.8 mi Calm Calm - N/A   Mist
3:11 AM 50.0 °F 48.9 °F 96% 29.92 in 1.2 mi North 3.5 mph - N/A   Overcast
3:22 AM 50.0 °F 48.9 °F 96% 29.92 in 2.0 mi NNE 3.5 mph - N/A   Overcast
3:30 AM 50.0 °F 48.9 °F 96% 29.92 in 1.2 mi Calm Calm - N/A   Overcast
3:41 AM 50.0 °F 48.9 °F 96% 29.93 in 3.0 mi North 3.5 mph - N/A   Overcast
3:52 AM 50.0 °F 48.9 °F 96% 29.94 in 4.0 mi Calm Calm - N/A   Overcast
4:15 AM 50.0 °F 48.9 °F 96% 29.93 in 2.5 mi Calm Calm - 0.00 in Rain Light Rain
4:29 AM 50.0 °F 48.9 °F 96% 29.93 in 4.0 mi Calm Calm - 0.01 in Rain Light Rain
4:52 AM 50.0 °F 48.9 °F 96% 29.94 in 5.0 mi Calm Calm - 0.02 in Rain Light Rain
5:52 AM 50.0 °F 48.0 °F 93% 29.91 in 10.0 mi East 4.6 mph - 0.05 in   Overcast
6:52 AM 50.0 °F 46.9 °F 89% 29.94 in 10.0 mi Calm Calm - 0.01 in   Overcast
7:00 AM 50.0 °F 46.9 °F 89% 29.93 in 10.0 mi Calm Calm - 0.00 in Rain Light Rain
7:25 AM 50.0 °F 48.0 °F 93% 29.93 in 10.0 mi Calm Calm - 0.00 in   Overcast
7:52 AM 50.0 °F 48.0 °F 93% 29.94 in 10.0 mi Calm Calm - 0.00 in Rain Light Rain
8:10 AM 50.0 °F 46.9 °F 89% 29.94 in 10.0 mi Calm Calm - 0.00 in Rain Light Rain
8:28 AM 50.0 °F 48.0 °F 93% 29.94 in 9.0 mi NE 3.5 mph - 0.00 in   Overcast
8:52 AM 51.1 °F 48.0 °F 89% 29.95 in 10.0 mi North 3.5 mph - 0.00 in   Overcast
9:18 AM 51.1 °F 48.0 °F 89% 29.94 in 10.0 mi NNE 4.6 mph - N/A   Overcast
9:52 AM 52.0 °F 48.9 °F 89% 29.95 in 10.0 mi Calm Calm - N/A   Overcast
10:52 AM 53.1 °F 48.9 °F 86% 29.94 in 10.0 mi Calm Calm - 0.00 in   Overcast
11:52 AM 54.0 °F 50.0 °F 86% 29.93 in 10.0 mi SSE 3.5 mph - N/A   Overcast
12:52 PM 55.0 °F 50.0 °F 83% 29.93 in 10.0 mi SE 4.6 mph - N/A   Overcast
1:08 PM 55.0 °F 51.1 °F 86% 29.92 in 6.0 mi SE 4.6 mph - N/A   Overcast
1:40 PM 57.0 °F 51.1 °F 81% 29.91 in 10.0 mi SE 4.6 mph - N/A   Overcast
1:52 PM 57.0 °F 51.1 °F 81% 29.91 in 10.0 mi Calm Calm - N/A   Overcast
2:40 PM 59.0 °F 52.0 °F 78% 29.89 in 10.0 mi SSE 4.6 mph - 0.00 in   Overcast
2:52 PM 59.0 °F 52.0 °F 78% 29.88 in 10.0 mi SSE 3.5 mph - 0.00 in   Overcast
3:34 PM 60.1 °F 53.1 °F 78% 29.87 in 10.0 mi Calm Calm - N/A   Overcast
3:52 PM 60.1 °F 53.1 °F 78% 29.87 in 10.0 mi South 3.5 mph - N/A   Overcast
4:52 PM 61.0 °F 53.1 °F 75% 29.87 in 10.0 mi SSE 4.6 mph - N/A   Overcast
5:52 PM 61.0 °F 53.1 °F 75% 29.87 in 10.0 mi SSE 3.5 mph - N/A   Mostly Cloudy
6:52 PM 62.1 °F 53.1 °F 72% 29.86 in 10.0 mi SSE 5.8 mph - N/A   Partly Cloudy
7:52 PM 60.1 °F 53.1 °F 78% 29.86 in 10.0 mi SE 5.8 mph - N/A   Mostly Cloudy
8:52 PM 57.9 °F 53.1 °F 84% 29.87 in 10.0 mi Calm Calm - N/A   Mostly Cloudy
9:52 PM 57.0 °F 53.1 °F 87% 29.87 in 10.0 mi East 4.6 mph - N/A   Scattered Clouds
10:27 PM 55.9 °F 53.1 °F 90% 29.87 in 10.0 mi Calm Calm - N/A   Mostly Cloudy
10:52 PM 55.0 °F 52.0 °F 89% 29.88 in 9.0 mi Calm Calm - N/A   Overcast
11:02 PM 55.9 °F 53.1 °F 90% 29.87 in 9.0 mi Calm Calm - N/A   Overcast
11:52 PM 54.0 °F 51.1 °F 90% 29.87 in 10.0 mi Calm Calm - N/A   Overcast